Location: Tom's Yard
(40.4840°N, 78.0100°W)
Time: 08:37:15
(UTC-04:00)

N. Korean satellite - Visible Passes

Search period start: 23 March 2019 00:00
Search period end: 02 April 2019 00:00
Orbit: 456 x 510 km, 97.2° (Epoch: 22 March)

Date Brightness Start Highest point End Pass type
(mag) Time Alt. Az. Time Alt. Az. Time Alt. Az.
23 Mar 9.7 06:34:39 10° NE 06:37:15 19° E 06:39:52 10° SE visible
27 Mar 9.9 06:28:59 10° NE 06:31:20 16° E 06:33:42 10° SE visible
31 Mar 10.0 06:23:20 10° ENE 06:25:21 14° E 06:27:24 10° SE visible
